Date String (YYYY-MM-DD hh:mm:ss) UTC,Instrument flags,absolute air pressure of the measurement (hPa),sample flow rate (lpm),inlet stack bypass flow (lpm),air temperature of the measurement (°C),ambient temperature measured by the external sensor (°C),aerosol sample conditioner tube jacket temperature (°C),OPC LED temperature (°C),internal box temperature (°C),relative humidity of the measurement (%),span deviation,mass concentration of particles derived from Lorenz-Mie calculation of OPC scattering (μg/m³),mass concentration of particles derived from Lorenz-Mie calculation of OPC scattering (μg/m³),mass concentration of particles derived from Lorenz-Mie calculation of OPC scattering (μg/m³)
DateTimeUTC,F1_M11,P_M11,Q1_M11,Q2_M11,T1_M11,T2_M11,T3_M11,T4_M11,T5_M11,U1_M11,ZSPAN_M11,X2_M11,X0_M11,X1_M11
2024-02-18 21:00:00,SystemResetWarning,0822.4,5.00,000.00,020.9,020.4,000.0,029.1,022.7,11.2,0000.0,0002.49,0004.78,0002.09
2024-02-18 21:01:00,SystemResetWarning,0822.4,5.01,000.00,020.9,020.5,000.0,029.1,022.7,11.0,0000.0,0002.44,0004.50,0002.07
2024-02-18 21:02:00,SystemResetWarning,0822.6,4.99,000.00,020.9,020.5,000.0,029.2,022.7,11.1,0000.0,0002.45,0004.52,0002.07
2024-02-18 21:03:00,SystemResetWarning,0822.4,5.00,000.00,020.9,020.5,000.0,029.2,022.7,11.7,0000.0,0002.52,0005.34,0002.08
2024-02-18 21:04:00,SystemResetWarning,0822.5,5.00,000.00,020.9,020.5,000.0,029.2,022.7,11.6,0000.0,0002.54,0005.68,0002.09
2024-02-18 21:05:00,SystemResetWarning,0822.4,5.00,000.00,020.9,020.5,000.0,029.2,022.7,11.5,0000.0,0002.54,0005.74,0002.11
2024-02-18 21:06:00,SystemResetWarning,0822.4,4.99,000.00,020.9,020.5,000.0,029.2,022.7,11.3,0000.0,0002.54,0005.64,0002.12
2024-02-18 21:07:00,SystemResetWarning,0822.4,5.00,000.00,020.9,020.5,000.0,029.2,022.7,11.8,0000.0,0002.56,0005.03,0002.14
2024-02-18 21:08:00,SystemResetWarning,0822.4,5.02,000.00,020.9,020.5,000.0,029.2,022.7,11.7,0000.0,0002.61,0005.20,0002.15
2024-02-18 21:09:00,SystemResetWarning,0822.4,5.00,000.00,020.9,020.5,000.0,029.2,022.7,11.7,0000.0,0002.64,0005.16,0002.17
2024-02-18 21:10:00,SystemResetWarning,0822.4,4.99,000.00,020.9,020.5,000.0,029.2,022.7,11.5,0000.0,0002.62,0004.76,0002.18
2024-02-18 21:11:00,SystemResetWarning,0822.3,5.00,000.00,021.0,020.5,000.0,029.2,022.7,11.2,0000.0,0002.61,0004.73,0002.19
2024-02-18 21:12:00,SystemResetWarning,0822.4,5.00,000.00,021.0,020.5,000.0,029.3,022.7,11.1,0000.0,0002.69,0004.88,0002.22
2024-02-18 21:13:00,SystemResetWarning,0822.4,5.00,000.00,021.0,020.5,000.0,029.3,022.8,11.3,0000.0,0002.71,0005.16,0002.25
2024-02-18 21:14:00,SystemResetWarning,0822.4,5.01,000.00,021.0,020.5,000.0,029.3,022.8,11.3,0000.0,0002.74,0005.08,0002.29
2024-02-18 21:15:00,SystemResetWarning,0822.4,5.00,000.00,021.0,020.5,000.0,029.3,022.8,11.4,0000.0,0002.80,0005.95,0002.34
2024-02-18 21:16:00,SystemResetWarning,0822.4,4.99,000.00,021.0,020.5,000.0,029.3,022.8,11.0,0000.0,0002.85,0005.92,0002.37
2024-02-18 21:17:00,SystemResetWarning,0822.4,5.00,000.00,021.0,020.5,000.0,029.3,022.8,11.1,0000.0,0002.89,0005.94,0002.42
2024-02-18 21:18:00,SystemResetWarning,0822.3,5.00,000.00,021.0,020.5,000.0,029.3,022.8,11.1,0000.0,0002.96,0006.08,0002.48
2024-02-18 21:19:00,SystemResetWarning,0822.4,4.99,000.00,021.0,020.6,000.0,029.3,022.8,11.2,0000.0,0003.01,0006.17,0002.54
2024-02-18 21:20:00,SystemResetWarning,0822.3,5.00,000.00,021.0,020.6,000.0,029.4,022.8,11.2,0000.0,0003.03,0007.48,0002.59
2024-02-18 21:21:00,SystemResetWarning,0822.4,5.01,000.00,021.0,020.6,000.0,029.4,022.8,11.0,0000.0,0003.07,0007.61,0002.63
2024-02-18 21:22:00,SystemResetWarning,0822.3,5.00,000.00,021.0,020.6,000.0,029.4,022.9,11.1,0000.0,0003.12,0007.94,0002.67
2024-02-18 21:23:00,SystemResetWarning,0822.3,4.99,000.00,021.1,020.6,000.0,029.4,022.9,11.3,0000.0,0003.13,0007.99,0002.70
2024-02-18 21:24:00,SystemResetWarning,0822.2,5.00,000.00,021.1,020.6,000.0,029.4,022.9,11.1,0000.0,0003.13,0007.90,0002.72
2024-02-18 21:25:00,SystemResetWarning,0822.3,5.01,000.00,021.1,020.6,000.0,029.4,022.9,11.4,0000.0,0003.12,0007.72,0002.72
2024-02-18 21:26:00,SystemResetWarning,0822.4,5.01,000.00,021.1,020.6,000.0,029.4,022.9,11.5,0000.0,0003.11,0006.71,0002.71
2024-02-18 21:27:00,SystemResetWarning,0822.4,5.00,000.00,021.1,020.6,000.0,029.4,022.9,12.0,0000.0,0003.08,0006.49,0002.68
2024-02-18 21:28:00,SystemResetWarning,0822.4,5.01,000.00,021.1,020.6,000.0,029.4,022.9,11.8,0000.0,0003.06,0006.53,0002.67
2024-02-18 21:29:00,SystemResetWarning,0822.4,4.99,000.00,021.1,020.6,000.0,029.4,022.9,11.9,0000.0,0003.05,0006.47,0002.65
2024-02-18 21:30:00,SystemResetWarning,0822.4,5.00,000.00,021.1,020.6,000.0,029.4,022.9,12.1,0000.0,0003.05,0006.39,0002.63
2024-02-18 21:31:00,SystemResetWarning,0822.4,5.00,000.00,021.1,020.6,000.0,029.4,022.9,11.3,0000.0,0003.04,0005.53,0002.60
2024-02-18 21:32:00,SystemResetWarning,0822.4,5.00,000.00,021.1,020.6,000.0,029.4,022.8,11.3,0000.0,0003.06,0006.43,0002.61
2024-02-18 21:33:00,SystemResetWarning,0822.4,5.00,000.00,021.1,020.6,000.0,029.4,022.8,11.5,0000.0,0003.04,0005.82,0002.62
2024-02-18 21:34:00,SystemResetWarning,0822.4,5.00,000.00,021.1,020.6,000.0,029.4,022.8,11.6,0000.0,0003.03,0006.43,0002.63
2024-02-18 21:35:00,SystemResetWarning,0822.4,5.00,000.00,021.1,020.6,000.0,029.5,022.8,11.8,0000.0,0003.09,0007.11,0002.64
2024-02-18 21:36:00,SystemResetWarning,0822.4,5.00,000.00,021.1,020.6,000.0,029.5,022.8,11.7,0000.0,0003.11,0007.19,0002.67
2024-02-18 21:37:00,SystemResetWarning,0822.4,5.00,000.00,021.1,020.6,000.0,029.5,022.8,11.7,0000.0,0003.12,0007.17,0002.72
2024-02-18 21:38:00,SystemResetWarning,0822.4,5.00,000.00,021.1,020.6,000.0,029.5,022.8,11.7,0000.0,0003.15,0007.19,0002.75
2024-02-18 21:39:00,SystemResetWarning,0822.4,5.00,000.00,021.1,020.6,000.0,029.5,022.8,11.9,0000.0,0003.18,0007.76,0002.79
2024-02-18 21:40:00,SystemResetWarning,0822.4,5.00,000.00,021.1,020.6,000.0,029.5,022.8,11.6,0000.0,0003.19,0008.34,0002.84
2024-02-18 21:41:00,SystemResetWarning,0822.4,5.01,000.00,021.1,020.6,000.0,029.5,022.8,11.5,0000.0,0003.19,0008.42,0002.88
2024-02-18 21:42:00,SystemResetWarning,0822.4,5.01,000.00,021.1,020.6,000.0,029.5,022.8,11.5,0000.0,0003.21,0008.87,0002.94
2024-02-18 21:43:00,SystemResetWarning,0822.4,5.01,000.00,021.1,020.6,000.0,029.5,022.8,11.7,0000.0,0003.23,0008.36,0002.97
2024-02-18 21:44:00,SystemResetWarning,0822.4,4.99,000.00,021.1,020.6,000.0,029.5,022.8,12.3,0000.0,0003.25,0008.41,0002.99
2024-02-18 21:45:00,SystemResetWarning,0822.5,4.99,000.00,021.1,020.6,000.0,029.5,022.8,11.9,0000.0,0003.26,0008.06,0003.03
2024-02-18 21:46:00,SystemResetWarning,0822.4,5.00,000.00,021.1,020.6,000.0,029.5,022.9,12.2,0000.0,0003.26,0007.75,0003.06
2024-02-18 21:47:00,SystemResetWarning,0822.4,5.00,000.00,021.1,020.6,000.0,029.5,022.9,12.0,0000.0,0003.27,0007.76,0003.08
2024-02-18 21:48:00,SystemResetWarning,0822.4,5.00,000.00,021.1,020.6,000.0,029.5,022.9,12.0,0000.0,0003.28,0007.77,0003.10
2024-02-18 21:49:00,SystemResetWarning,0822.3,5.01,000.00,021.1,020.6,000.0,029.5,022.9,11.9,0000.0,0003.29,0007.79,0003.12
2024-02-18 21:50:00,SystemResetWarning,0822.3,5.01,000.00,021.1,020.7,000.0,029.5,022.9,12.1,0000.0,0003.33,0007.67,0003.15
2024-02-18 21:51:00,SystemResetWarning,0822.4,5.00,000.00,021.1,020.7,000.0,029.5,022.9,11.9,0000.0,0003.36,0006.78,0003.16
2024-02-18 21:52:00,SystemResetWarning,0822.4,5.00,000.00,021.1,020.7,000.0,029.5,022.9,12.2,0000.0,0003.38,0006.45,0003.17
2024-02-18 21:53:00,SystemResetWarning,0822.4,5.00,000.00,021.1,020.7,000.0,029.5,022.9,12.0,0000.0,0003.40,0006.18,0003.18
2024-02-18 21:54:00,SystemResetWarning,0822.4,4.99,000.00,021.2,020.7,000.0,029.5,023.0,11.8,0000.0,0003.39,0005.64,0003.19
2024-02-18 21:55:00,SystemResetWarning,0822.4,4.99,000.00,021.2,020.7,000.0,029.5,023.0,11.8,0000.0,0003.41,0005.71,0003.20
2024-02-18 21:56:00,SystemResetWarning,0822.4,4.99,000.00,021.2,020.7,000.0,029.5,023.0,12.0,0000.0,0003.46,0005.87,0003.23
2024-02-18 21:57:00,SystemResetWarning,0822.4,4.99,000.00,021.2,020.7,000.0,029.5,022.9,12.2,0000.0,0003.49,0005.95,0003.24
2024-02-18 21:58:00,SystemResetWarning,0822.3,5.01,000.00,021.2,020.7,000.0,029.5,022.9,12.1,0000.0,0003.53,0006.07,0003.26
2024-02-18 21:59:00,SystemResetWarning,0822.3,5.00,000.00,021.2,020.7,000.0,029.5,022.9,12.1,0000.0,0003.57,0006.25,0003.27
